• In Austria
  • List of Countries
  • For 7 days
  • Water Temperature
  • Satellite Maps
  • Weather Map
  • News
  • Weather Widgets
  • user-avatar
    Login

    Hourly Weather Fier

    Today, 22 May, Tuesday

    Time Temperature Precipitation Wind Pressure Humidity
    00:00 +21°C° 0 mm 1 mps 759 mmHg 80%
    01:00 +21°C° 0 mm 1 mps 759 mmHg 80%
    02:00 +20°C° 0 mm 1 mps 759 mmHg 81%
    03:00 +20°C° 0 mm 1 mps 759 mmHg 81%
    04:00 +19°C° 0 mm 2 mps 759 mmHg 81%
    05:00 +21°C° 0 mm 2 mps 759 mmHg 77%
    06:00 +23°C° 0 mm 2 mps 760 mmHg 73%
    07:00 +25°C° 0 mm 2 mps 760 mmHg 68%
    08:00 +26°C° 0.1 mm 2 mps 760 mmHg 62%
    09:00 +28°C° 0.1 mm 2 mps 760 mmHg 55%
    10:00 +29°C° 0.1 mm 2 mps 760 mmHg 49%
    11:00 +29°C° 0.2 mm 2 mps 760 mmHg 48%
    12:00 +30°C° 0.2 mm 3 mps 760 mmHg 48%
    13:00 +30°C° 0 mm 2 mps 760 mmHg 47%
    14:00 +30°C° 0.2 mm 2 mps 760 mmHg 48%
    15:00 +30°C° 0.2 mm 2 mps 760 mmHg 50%
    16:00 +30°C° 0.2 mm 2 mps 760 mmHg 51%
    17:00 +28°C° 0.1 mm 1 mps 760 mmHg 58%
    18:00 +26°C° 0.1 mm 1 mps 760 mmHg 65%
    19:00 +24°C° 0.1 mm 1 mps 760 mmHg 71%
    20:00 +24°C° 0 mm 1 mps 760 mmHg 72%
    21:00 +23°C° 0 mm 1 mps 761 mmHg 72%
    22:00 +23°C° 0 mm 2 mps 761 mmHg 73%
    23:00 +21°C° 0 mm 2 mps 761 mmHg 72%

    Tomorrow, 23 May, Wednesday

    Time Temperature Precipitation Wind Pressure Humidity
    00:00 +21°C° 0 mm 2 mps 761 mmHg 71%
    01:00 +21°C° 0 mm 2 mps 761 mmHg 70%
    02:00 +21°C° 0 mm 2 mps 761 mmHg 70%
    03:00 +20°C° 0 mm 3 mps 761 mmHg 70%
    04:00 +20°C° 0 mm 3 mps 761 mmHg 70%
    05:00 +23°C° 0 mm 2 mps 761 mmHg 67%
    06:00 +24°C° 0 mm 2 mps 761 mmHg 65%
    07:00 +26°C° 0 mm 2 mps 761 mmHg 62%
    08:00 +27°C° 0.1 mm 2 mps 761 mmHg 60%
    09:00 +27°C° 0.1 mm 2 mps 761 mmHg 58%
    10:00 +28°C° 0.1 mm 2 mps 761 mmHg 56%
    11:00 +28°C° 0.5 mm 3 mps 761 mmHg 58%
    12:00 +28°C° 0.5 mm 3 mps 760 mmHg 60%
    13:00 +28°C° 0.5 mm 4 mps 760 mmHg 62%
    14:00 +27°C° 0.5 mm 4 mps 760 mmHg 63%
    15:00 +27°C° 0.5 mm 3 mps 760 mmHg 64%
    16:00 +26°C° 0.5 mm 3 mps 759 mmHg 65%
    17:00 +25°C° 0.5 mm 3 mps 759 mmHg 68%
    18:00 +24°C° 0.5 mm 2 mps 759 mmHg 71%
    19:00 +23°C° 0.5 mm 2 mps 760 mmHg 74%
    20:00 +23°C° 0.3 mm 2 mps 760 mmHg 75%
    21:00 +21°C° 0.3 mm 2 mps 760 mmHg 76%
    22:00 +21°C° 0.3 mm 2 mps 760 mmHg 78%
    23:00 +21°C° 0.1 mm 2 mps 760 mmHg 79%

    Day after tomorrow, 24 May, Thursday

    Time Temperature Precipitation Wind Pressure Humidity
    00:00 +20°C° 0.1 mm 2 mps 760 mmHg 80%
    01:00 +20°C° 0.1 mm 2 mps 760 mmHg 81%
    02:00 +20°C° 0.1 mm 2 mps 760 mmHg 81%
    03:00 +19°C° 0.1 mm 2 mps 760 mmHg 82%
    04:00 +19°C° 0.1 mm 2 mps 759 mmHg 82%
    05:00 +20°C° 0 mm 2 mps 760 mmHg 78%
    06:00 +21°C° 0 mm 2 mps 760 mmHg 74%
    07:00 +24°C° 0 mm 2 mps 760 mmHg 70%
    08:00 +25°C° 0.1 mm 2 mps 760 mmHg 67%
    09:00 +26°C° 0.1 mm 3 mps 760 mmHg 64%
    10:00 +27°C° 0.1 mm 4 mps 760 mmHg 60%
    11:00 +27°C° 0.2 mm 4 mps 759 mmHg 60%
    12:00 +27°C° 0.2 mm 5 mps 759 mmHg 61%
    13:00 +28°C° 0.2 mm 5 mps 759 mmHg 61%
    14:00 +27°C° 0.2 mm 5 mps 759 mmHg 64%
    15:00 +27°C° 0.2 mm 5 mps 758 mmHg 66%
    16:00 +26°C° 0.2 mm 5 mps 758 mmHg 69%
    17:00 +25°C° 0.1 mm 4 mps 758 mmHg 76%
    18:00 +22°C° 0.1 mm 4 mps 758 mmHg 82%
    19:00 +21°C° 0.1 mm 3 mps 758 mmHg 88%
    20:00 +20°C° 0 mm 2 mps 759 mmHg 90%
    21:00 +20°C° 0 mm 2 mps 759 mmHg 91%
    22:00 +20°C° 0 mm 2 mps 759 mmHg 92%
    23:00 +19°C° 0 mm 2 mps 759 mmHg 91%

    25 May, Friday

    Time Temperature Precipitation Wind Pressure Humidity
    00:00 +19°C° 0 mm 2 mps 759 mmHg 89%
    01:00 +19°C° 0 mm 2 mps 759 mmHg 88%
    02:00 +19°C° 0 mm 2 mps 759 mmHg 87%
    03:00 +19°C° 0 mm 2 mps 758 mmHg 86%
    04:00 +18°C° 0 mm 2 mps 758 mmHg 85%
    05:00 +20°C° 0 mm 2 mps 759 mmHg 79%
    06:00 +23°C° 0 mm 2 mps 759 mmHg 73%
    07:00 +25°C° 0 mm 2 mps 759 mmHg 67%
    08:00 +26°C° 0 mm 2 mps 759 mmHg 62%
    09:00 +28°C° 0 mm 2 mps 759 mmHg 56%
    10:00 +29°C° 0 mm 3 mps 759 mmHg 51%
    11:00 +30°C° 0.1 mm 3 mps 758 mmHg 50%
    12:00 +30°C° 0.1 mm 4 mps 758 mmHg 49%
    13:00 +32°C° 0.1 mm 5 mps 758 mmHg 49%
    14:00 +30°C° 0.4 mm 4 mps 758 mmHg 52%
    15:00 +29°C° 0.4 mm 4 mps 758 mmHg 55%
    16:00 +29°C° 0.4 mm 4 mps 758 mmHg 58%
    17:00 +27°C° 0.1 mm 4 mps 758 mmHg 64%
    18:00 +26°C° 0.1 mm 3 mps 758 mmHg 70%
    19:00 +24°C° 0.1 mm 3 mps 759 mmHg 76%
    20:00 +22°C° 0 mm 3 mps 759 mmHg 77%
    21:00 +23°C° 0 mm 2 mps 759 mmHg 78%
    22:00 +21°C° 0 mm 2 mps 760 mmHg 78%
    23:00 +21°C° 0 mm 2 mps 760 mmHg 78%

    26 May, Saturday

    Time Temperature Precipitation Wind Pressure Humidity
    00:00 +21°C° 0 mm 2 mps 760 mmHg 77%
    01:00 +20°C° 0 mm 2 mps 760 mmHg 76%
    02:00 +20°C° 0 mm 2 mps 760 mmHg 76%
    03:00 +20°C° 0 mm 2 mps 760 mmHg 75%
    04:00 +20°C° 0 mm 2 mps 760 mmHg 75%
    05:00 +21°C° 0 mm 2 mps 760 mmHg 71%
    06:00 +24°C° 0 mm 2 mps 760 mmHg 68%
    07:00 +26°C° 0 mm 2 mps 760 mmHg 64%
    08:00 +27°C° 0 mm 2 mps 760 mmHg 58%
    09:00 +29°C° 0 mm 2 mps 761 mmHg 51%
    10:00 +30°C° 0 mm 3 mps 761 mmHg 44%
    11:00 +31°C° 0 mm 3 mps 760 mmHg 43%
    12:00 +32°C° 0 mm 4 mps 760 mmHg 42%
    13:00 +33°C° 0 mm 4 mps 760 mmHg 40%
    14:00 +33°C° 0 mm 5 mps 760 mmHg 42%
    15:00 +33°C° 0 mm 5 mps 760 mmHg 44%
    16:00 +32°C° 0 mm 5 mps 760 mmHg 46%
    17:00 +29°C° 0 mm 5 mps 760 mmHg 54%
    18:00 +27°C° 0 mm 4 mps 760 mmHg 62%
    19:00 +25°C° 0 mm 4 mps 760 mmHg 69%
    20:00 +25°C° 0 mm 4 mps 760 mmHg 70%
    21:00 +24°C° 0 mm 3 mps 761 mmHg 71%
    22:00 +22°C° 0 mm 3 mps 761 mmHg 71%
    23:00 +22°C° 0 mm 3 mps 761 mmHg 71%

    27 May, Sunday

    Time Temperature Precipitation Wind Pressure Humidity
    00:00 +22°C° 0 mm 3 mps 761 mmHg 71%
    01:00 +21°C° 0 mm 3 mps 761 mmHg 70%
    02:00 +21°C° 0 mm 3 mps 761 mmHg 71%
    03:00 +21°C° 0 mm 3 mps 761 mmHg 72%
    04:00 +21°C° 0 mm 3 mps 761 mmHg 72%
    05:00 +22°C° 0 mm 3 mps 761 mmHg 70%
    06:00 +25°C° 0 mm 2 mps 761 mmHg 68%
    07:00 +27°C° 0 mm 2 mps 761 mmHg 66%
    08:00 +28°C° 0 mm 2 mps 761 mmHg 61%
    09:00 +29°C° 0 mm 2 mps 761 mmHg 55%
    10:00 +31°C° 0 mm 3 mps 761 mmHg 49%
    11:00 +31°C° 0.1 mm 3 mps 761 mmHg 48%
    12:00 +31°C° 0.1 mm 3 mps 761 mmHg 48%
    13:00 +33°C° 0.1 mm 4 mps 761 mmHg 47%
    14:00 +32°C° 0.2 mm 4 mps 761 mmHg 49%
    15:00 +32°C° 0.2 mm 4 mps 760 mmHg 51%
    16:00 +30°C° 0.2 mm 3 mps 760 mmHg 54%
    17:00 +29°C° 0 mm 3 mps 760 mmHg 59%
    18:00 +27°C° 0 mm 3 mps 761 mmHg 64%
    19:00 +26°C° 0 mm 2 mps 761 mmHg 69%
    20:00 +25°C° 0 mm 2 mps 761 mmHg 71%
    21:00 +24°C° 0 mm 2 mps 761 mmHg 73%
    22:00 +23°C° 0 mm 2 mps 762 mmHg 75%
    23:00 +23°C° 0 mm 2 mps 762 mmHg 75%
    Show more